Robinson, IL

3:21 AM CST on February 18, 2018 (GMT -0600)
Robinson Municipal

Weather History for KRSV - November, 2011

Change the Weather History Date:

Sunday, November 27, 2011

  Actual Average (KLWV) Record (KLWV)
Temperature  
Mean Temperature 47 °F -  
Max Temperature 55 °F 48 °F 71 °F (1990)
Min Temperature 37 °F 32 °F 15 °F (2013)
Degree Days  
Heating Degree Days 18    
Moisture  
Dew Point 40 °F    
Average Humidity 96    
Maximum Humidity 100    
Minimum Humidity 87    
Precipitation  
Precipitation 0.03 in - - ()
Sea Level Pressure  
Sea Level Pressure 29.95 in    
Wind  
Wind Speed 10 mph (WNW)    
Max Wind Speed 16 mph    
Max Gust Speed 18 mph    
Visibility 8 miles    
Events Rain    
Averages and records for this station are not official NWS values.
T = Trace of Precipitation, MM = Missing Value Source: NWS Daily Summary

Daily Weather History Graph

Daily Weather History Graph

Search for Another Location

Airport or City:

Trip Planner

Search our weather history database for the weather conditions in past years. The results will help you decide how hot, cold, wet, or windy it might be!

Date:

Astronomy

Nov. 27, 2011 Rise Set
Actual Time 6:46 AM CST 4:29 PM CST
Civil Twilight 6:16 AM CST 4:59 PM CST
Nautical Twilight 5:44 AM CST 5:32 PM CST
Astronomical Twilight 5:12 AM CST 6:04 PM CST
Moon 9:10 AM CST (11/27) 7:08 PM CST (11/27)
Length of Visible Light 10h 42m
Length of Day
9h 43m
Waxing Crescent, 8% of the Moon is Illuminated
Nov 27
Waxing Crescent
Dec 2
First Quarter
Dec 10
Full
Dec 17
Last Quarter
Dec 24
New

Hourly Weather History & Observations

Time (CST) Temp. Windchill Dew Point Humidity Pressure Visibility Wind Dir Wind Speed Gust Speed Precip Events Conditions
12:15 AM 55.4 °F - 53.6 °F 94% 29.85 in 7.0 mi South 8.1 mph - N/A Rain Rain
12:55 AM 46.4 °F 41.5 °F 46.4 °F 100% 29.85 in 7.0 mi West 10.4 mph 18.4 mph N/A Rain Rain
1:15 AM 46.4 °F 41.1 °F 44.6 °F 93% 29.86 in 10.0 mi WNW 11.5 mph - N/A Rain Rain
1:35 AM 46.4 °F 42.4 °F 44.6 °F 93% 29.86 in 10.0 mi WNW 8.1 mph - 0.01 in Rain Rain
1:55 AM 44.6 °F 39.7 °F 44.6 °F 100% 29.87 in 10.0 mi WNW 9.2 mph - 0.01 in Rain Light Rain
2:15 AM 44.6 °F 38.8 °F 42.8 °F 93% 29.88 in 7.0 mi West 11.5 mph 18.4 mph N/A Rain Rain
2:35 AM 42.8 °F 36.6 °F 42.8 °F 100% 29.87 in 7.0 mi West 11.5 mph - 0.01 in Rain Rain
2:55 AM 42.8 °F 36.6 °F 42.8 °F 100% 29.87 in 7.0 mi WNW 11.5 mph - 0.01 in Rain Rain
3:15 AM 42.8 °F 38.0 °F 41.0 °F 93% 29.88 in 10.0 mi WNW 8.1 mph - N/A Rain Rain
3:35 AM 42.8 °F 37.5 °F 41.0 °F 93% 29.88 in 10.0 mi NW 9.2 mph - N/A Rain Rain
3:55 AM 42.8 °F 37.0 °F 41.0 °F 93% 29.87 in 10.0 mi NW 10.4 mph - N/A Rain Rain
4:15 AM 41.0 °F 36.4 °F 41.0 °F 100% 29.87 in 7.0 mi WNW 6.9 mph - N/A Rain Rain
4:35 AM 41.0 °F 35.2 °F 41.0 °F 100% 29.88 in 7.0 mi WNW 9.2 mph - N/A Rain Rain
4:55 AM 41.0 °F 35.2 °F 41.0 °F 100% 29.88 in 7.0 mi WNW 9.2 mph - N/A Rain Light Rain
5:15 AM 41.0 °F 35.8 °F 41.0 °F 100% 29.88 in 7.0 mi WNW 8.1 mph - N/A Rain Light Rain
5:35 AM 41.0 °F 35.2 °F 41.0 °F 100% 29.88 in 7.0 mi WNW 9.2 mph - N/A Rain Light Rain
5:55 AM 41.0 °F 36.4 °F 41.0 °F 100% 29.90 in 10.0 mi WNW 6.9 mph - N/A Rain Light Rain
6:15 AM 41.0 °F 35.2 °F 41.0 °F 100% 29.92 in 7.0 mi West 9.2 mph - N/A Rain Light Rain
6:35 AM 41.0 °F 34.7 °F 41.0 °F 100% 29.91 in 7.0 mi West 10.4 mph - N/A Rain Light Rain
6:55 AM 41.0 °F 35.2 °F 41.0 °F 100% 29.92 in 5.0 mi WNW 9.2 mph - N/A Rain Light Rain
7:15 AM 41.0 °F 35.2 °F 41.0 °F 100% 29.93 in 4.0 mi West 9.2 mph - N/A Rain Rain
7:35 AM 41.0 °F 34.7 °F 41.0 °F 100% 29.93 in 4.0 mi WNW 10.4 mph - N/A Rain Rain
7:55 AM 41.0 °F 34.3 °F 41.0 °F 100% 29.94 in 7.0 mi WNW 11.5 mph 16.1 mph N/A Rain Light Rain
8:15 AM 41.0 °F 34.3 °F 41.0 °F 100% 29.95 in 5.0 mi WNW 11.5 mph - N/A Rain Rain
8:35 AM 41.0 °F 34.3 °F 41.0 °F 100% 29.95 in 5.0 mi WNW 11.5 mph - N/A Rain Light Rain
8:55 AM 41.0 °F 34.7 °F 41.0 °F 100% 29.97 in 7.0 mi West 10.4 mph - N/A Rain Light Rain
9:15 AM 41.0 °F 34.7 °F 41.0 °F 100% 29.96 in 7.0 mi WNW 10.4 mph - N/A Rain Light Rain
9:35 AM 41.0 °F 34.7 °F 41.0 °F 100% 29.97 in 7.0 mi WNW 10.4 mph - N/A Rain Light Rain
9:55 AM 41.0 °F 35.8 °F 41.0 °F 100% 29.97 in 10.0 mi WNW 8.1 mph 16.1 mph N/A Rain Rain
10:15 AM 41.0 °F 33.9 °F 41.0 °F 100% 29.98 in 10.0 mi WNW 12.7 mph 16.1 mph N/A Rain Light Rain
10:35 AM 41.0 °F 34.7 °F 41.0 °F 100% 29.99 in 10.0 mi West 10.4 mph - N/A Rain Rain
10:55 AM 41.0 °F 34.7 °F 41.0 °F 100% 29.99 in 10.0 mi West 10.4 mph - N/A Rain Light Rain
11:15 AM 41.0 °F 34.3 °F 39.2 °F 93% 29.99 in 10.0 mi NW 11.5 mph 16.1 mph N/A Rain Light Rain
11:35 AM 41.0 °F 35.2 °F 39.2 °F 93% 29.98 in 10.0 mi WNW 9.2 mph 17.3 mph N/A Rain Light Rain
11:55 AM 41.0 °F 33.9 °F 39.2 °F 93% 29.98 in 10.0 mi WNW 12.7 mph 17.3 mph N/A Rain Light Rain
12:15 PM 41.0 °F 34.3 °F 39.2 °F 93% 29.99 in 10.0 mi West 11.5 mph - N/A Rain Light Rain
12:35 PM 41.0 °F 34.7 °F 39.2 °F 93% 29.99 in 10.0 mi WNW 10.4 mph - N/A Rain Light Rain
12:55 PM 41.0 °F 34.7 °F 39.2 °F 93% 29.98 in 10.0 mi WNW 10.4 mph - N/A Rain Light Rain
1:15 PM 41.0 °F 34.7 °F 37.4 °F 87% 29.98 in 10.0 mi NW 10.4 mph - N/A   Light Drizzle
1:35 PM 41.0 °F 34.3 °F 39.2 °F 93% 29.99 in 10.0 mi WNW 11.5 mph - N/A Rain Light Rain
2:15 PM 41.0 °F 35.2 °F 37.4 °F 87% 29.99 in 10.0 mi WNW 9.2 mph - N/A Rain Light Rain
2:35 PM 41.0 °F 34.7 °F 37.4 °F 87% 30.00 in 10.0 mi WNW 10.4 mph - N/A   Overcast
2:55 PM 41.0 °F 34.7 °F 37.4 °F 87% 30.00 in 10.0 mi NW 10.4 mph - N/A Rain Light Rain
3:15 PM 39.2 °F 32.0 °F 37.4 °F 93% 30.01 in 10.0 mi WNW 11.5 mph - N/A Rain Light Rain
3:35 PM 41.0 °F 33.9 °F 37.4 °F 87% 30.02 in 10.0 mi WNW 12.7 mph - N/A Rain Light Rain
3:55 PM 39.2 °F 32.5 °F 37.4 °F 93% 30.02 in 10.0 mi WNW 10.4 mph - N/A   Overcast
4:35 PM 39.2 °F 33.0 °F 37.4 °F 93% 30.03 in 10.0 mi WNW 9.2 mph - N/A   Overcast
4:55 PM 39.2 °F 30.5 °F 37.4 °F 93% 30.04 in 10.0 mi NW 16.1 mph - 0.01 in   Overcast
5:15 PM 39.2 °F 31.6 °F 37.4 °F 93% 30.05 in 10.0 mi NW 12.7 mph 16.1 mph N/A   Light Drizzle
5:35 PM 39.2 °F 32.0 °F 37.4 °F 93% 30.05 in 7.0 mi NW 11.5 mph - N/A   Light Drizzle
5:55 PM 39.2 °F 32.0 °F 37.4 °F 93% 30.06 in 10.0 mi NW 11.5 mph 16.1 mph N/A Rain Light Rain
6:15 PM 37.4 °F 30.3 °F 35.6 °F 93% 30.08 in 10.0 mi NW 10.4 mph 17.3 mph N/A   Light Drizzle
6:55 PM 37.4 °F 30.3 °F 37.4 °F 100% 30.07 in 10.0 mi NW 10.4 mph - N/A Rain Light Rain
7:15 PM 37.4 °F 29.8 °F 37.4 °F 100% 30.06 in 10.0 mi NW 11.5 mph 16.1 mph N/A Rain Rain
7:35 PM 37.4 °F 29.3 °F 37.4 °F 100% 30.07 in 10.0 mi NNW 12.7 mph 17.3 mph N/A Rain Light Rain
7:55 PM 37.4 °F 30.3 °F 37.4 °F 100% 30.07 in 10.0 mi NNW 10.4 mph 16.1 mph N/A Rain Light Rain
8:15 PM 37.4 °F 30.8 °F 37.4 °F 100% 30.08 in 10.0 mi NW 9.2 mph - N/A Rain Light Rain
8:35 PM 37.4 °F 31.4 °F 37.4 °F 100% 30.09 in 10.0 mi NNW 8.1 mph - N/A   Light Drizzle
8:55 PM 37.4 °F 29.8 °F 35.6 °F 93% 30.08 in 10.0 mi NW 11.5 mph 17.3 mph N/A   Overcast
9:15 PM 37.4 °F 30.3 °F 35.6 °F 93% 30.09 in 10.0 mi NNW 10.4 mph - N/A   Overcast
10:15 PM 37.4 °F 30.3 °F 35.6 °F 93% 30.07 in 10.0 mi NNW 10.4 mph - N/A   Overcast
10:35 PM 37.4 °F 30.3 °F 35.6 °F 93% 30.06 in 10.0 mi NNW 10.4 mph - N/A   Light Drizzle
10:55 PM 37.4 °F 30.8 °F 35.6 °F 93% 30.07 in 10.0 mi NNW 9.2 mph - N/A   Overcast
11:15 PM 37.4 °F 30.8 °F 35.6 °F 93% 30.09 in 10.0 mi NNW 9.2 mph - N/A   Overcast
11:35 PM 37.4 °F 29.8 °F 35.6 °F 93% 30.06 in 7.0 mi NNW 11.5 mph - N/A   Overcast
11:55 PM 37.4 °F 30.8 °F 35.6 °F 93% 30.07 in 10.0 mi NNW 9.2 mph - N/A   Overcast